Maxton, NC

8:43 PM EST on February 23, 2017 (GMT -0500)
Laurinburg-Maxton

Weather History for KMEB - May, 2013

Change the Weather History Date:

Sunday, May 5, 2013

  Actual Average (KHFF) Record (KHFF)
Temperature  
Mean Temperature 58 °F -  
Max Temperature 64 °F 78 °F 89 °F (2012)
Min Temperature 51 °F 58 °F 44 °F (2011)
Degree Days  
Heating Degree Days 8    
Growing Degree Days 8 (Base 50)    
Moisture  
Dew Point 55 °F    
Average Humidity 88    
Maximum Humidity 94    
Minimum Humidity 74    
Precipitation  
Precipitation 0.05 in - - ()
Sea Level Pressure  
Sea Level Pressure 29.96 in    
Wind  
Wind Speed 15 mph (ENE)    
Max Wind Speed 20 mph    
Max Gust Speed 26 mph    
Visibility 9 miles    
Events Rain    
Averages and records for this station are not official NWS values.
T = Trace of Precipitation, MM = Missing Value Source: NWS Daily Summary

Daily Weather History Graph

Daily Weather History Graph

Search for Another Location

Airport or City:

Trip Planner

Search our weather history database for the weather conditions in past years. The results will help you decide how hot, cold, wet, or windy it might be!

Date:

Astronomy

May. 05, 2013 Rise Set
Actual Time 6:22 AM EDT 8:06 PM EDT
Civil Twilight 5:55 AM EDT 8:33 PM EDT
Nautical Twilight 5:22 AM EDT 9:06 PM EDT
Astronomical Twilight 4:47 AM EDT 9:41 PM EDT
Moon 3:42 AM EDT (5/5) 4:12 PM EDT (5/5)
Length of Visible Light 14h 37m
Length of Day
13h 43m
Waning Crescent, 18% of the Moon is Illuminated
May 5
Waning Crescent
May 9
New
May 18
First Quarter
May 25
Full
May 31
Last Quarter

Hourly Weather History & Observations

Time (EDT) Temp. Dew Point Humidity Pressure Visibility Wind Dir Wind Speed Gust Speed Precip Events Conditions
12:52 AM 57.0 °F 48.9 °F 74% 30.03 in 10.0 mi ENE 15.0 mph - N/A   Overcast
1:52 AM 55.9 °F 48.9 °F 77% 30.02 in 10.0 mi ENE 13.8 mph - N/A   Overcast
2:52 AM 55.0 °F 48.9 °F 80% 29.99 in 10.0 mi ENE 16.1 mph - N/A   Overcast
3:40 AM 53.6 °F 48.2 °F 82% 29.99 in 10.0 mi ENE 13.8 mph - N/A   Overcast
3:52 AM 54.0 °F 48.9 °F 83% 29.99 in 10.0 mi ENE 17.3 mph - N/A   Overcast
4:52 AM 53.1 °F 48.0 °F 83% 29.98 in 10.0 mi ENE 17.3 mph 23.0 mph N/A   Overcast
5:52 AM 53.1 °F 48.0 °F 83% 29.97 in 10.0 mi ENE 13.8 mph - N/A   Overcast
6:52 AM 52.0 °F 48.0 °F 86% 29.99 in 10.0 mi East 16.1 mph 23.0 mph N/A   Overcast
7:40 AM 51.8 °F 48.2 °F 88% 30.01 in 9.0 mi ENE 12.7 mph - N/A   Overcast
7:52 AM 52.0 °F 48.9 °F 89% 30.00 in 9.0 mi ENE 18.4 mph 26.5 mph N/A   Overcast
8:52 AM 52.0 °F 50.0 °F 93% 30.01 in 8.0 mi East 18.4 mph - N/A   Overcast
10:48 AM 55.4 °F 51.8 °F 88% 30.00 in 10.0 mi East 19.6 mph 23.0 mph N/A   Overcast
10:52 AM 55.9 °F 51.1 °F 84% 30.00 in 10.0 mi East 16.1 mph 23.0 mph N/A   Overcast
11:52 AM 57.0 °F 52.0 °F 83% 29.99 in 10.0 mi ENE 15.0 mph - N/A   Overcast
12:52 PM 59.0 °F 54.0 °F 83% 29.99 in 10.0 mi East 13.8 mph 21.9 mph N/A   Overcast
1:00 PM 59.0 °F 53.6 °F 82% 29.99 in 10.0 mi East 15.0 mph - N/A   Overcast
1:52 PM 60.1 °F 55.9 °F 86% 29.97 in 6.0 mi ENE 13.8 mph 18.4 mph 0.01 in Rain Light Rain
2:20 PM 60.8 °F 57.2 °F 88% 29.97 in 5.0 mi East 8.1 mph - 0.02 in Rain Light Rain
2:52 PM 60.1 °F 57.9 °F 93% 29.94 in 2.0 mi ENE 13.8 mph - 0.04 in Rain Light Rain
2:56 PM 60.8 °F 57.2 °F 88% 29.94 in 3.0 mi ENE 11.5 mph - 0.00 in Rain Light Rain
3:03 PM 60.8 °F 59.0 °F 94% 29.95 in 4.0 mi ENE 11.5 mph - 0.00 in Rain Light Rain
3:14 PM 60.8 °F 59.0 °F 94% 29.96 in 6.0 mi ENE 11.5 mph - 0.00 in   Overcast
3:52 PM 62.1 °F 59.0 °F 90% 29.93 in 10.0 mi ENE 16.1 mph - 0.00 in   Mostly Cloudy
4:02 PM 62.6 °F 59.0 °F 88% 29.93 in 10.0 mi ENE 15.0 mph - N/A   Overcast
4:44 PM 62.6 °F 60.8 °F 94% 29.92 in 9.0 mi East 15.0 mph 21.9 mph N/A   Overcast
4:52 PM 63.0 °F 60.1 °F 90% 29.91 in 7.0 mi ENE 15.0 mph 20.7 mph N/A   Overcast
5:18 PM 62.6 °F 60.8 °F 94% 29.92 in 10.0 mi East 11.5 mph - N/A   Overcast
5:52 PM 64.0 °F 61.0 °F 90% 29.91 in 10.0 mi ENE 11.5 mph - N/A   Overcast
6:52 PM 64.0 °F 61.0 °F 90% 29.90 in 10.0 mi East 12.7 mph - N/A   Overcast
7:52 PM 63.0 °F 60.1 °F 90% 29.91 in 10.0 mi East 12.7 mph - 0.00 in   Mostly Cloudy
8:52 PM 62.1 °F 60.1 °F 93% 29.91 in 10.0 mi East 11.5 mph - N/A   Overcast
9:29 PM 62.6 °F 60.8 °F 94% 29.92 in 10.0 mi East 10.4 mph - N/A   Overcast
9:52 PM 62.1 °F 60.1 °F 93% 29.92 in 10.0 mi East 12.7 mph - N/A   Overcast
10:52 PM 62.1 °F 60.1 °F 93% 29.94 in 10.0 mi East 16.1 mph - N/A   Overcast
11:52 PM 62.1 °F 59.0 °F 90% 29.92 in 10.0 mi East 18.4 mph 26.5 mph N/A   Mostly Cloudy